Location: Cold Norton
(51.6667°N, 0.6667°E)
Time: 16:58:53
(UTC+00:00)

Okean 2 Rocket - Pass Details

Date: 18 November 2025
Orbit: 611 x 635 km, 82.5° (Epoch: 12 December)

Event Time Altitude Azimuth Distance (km) Brightness Sun altitude
Rises 18:49:09 0° 202° (SSW) 2,885 6.8 -25.4°
Reaches altitude 10° 18:51:25 10° 207° (SSW) 1,981 5.9 -25.7°
Maximum altitude 18:55:42 52° 285° (WNW) 769 3.8 -26.4°
Enters shadow 18:57:22 33° 343° (NNW) 1,047 4.3 -26.6°
